| time (UTC) | temp F | wind direction | speed MPH | gust MPH | rain 1hr in | rain 24hr in | rain mn in | humidity % | barometer mb |
| 20260505193237 | 62 | 205 | 1.0 | 1.0 | 0.00 | 0.00 | 0.00 | 75 | 1019.3 |
| 20260505192736 | 61 | 209 | 0.0 | 0.0 | 0.00 | 0.00 | 0.00 | 78 | 1019.6 |
| 20260505192233 | 61 | 209 | 0.0 | 1.0 | 0.00 | 0.00 | 0.00 | 77 | 1019.6 |
| 20260505191731 | 62 | 218 | 0.0 | 0.0 | 0.00 | 0.00 | 0.00 | 75 | 1019.6 |
| 20260505191229 | 62 | 228 | 0.0 | 1.0 | 0.00 | 0.00 | 0.00 | 75 | 1019.6 |
| 20260505190725 | 62 | 203 | 0.0 | 1.0 | 0.00 | 0.00 | 0.00 | 74 | 1019.6 |
| 20260505190225 | 61 | 212 | 0.0 | 0.0 | 0.00 | 0.00 | 0.00 | 76 | 1019.6 |
| 20260505185722 | 61 | 232 | 1.0 | 2.0 | 0.00 | 0.00 | 0.00 | 77 | 1019.3 |
| 20260505185218 | 62 | 203 | 1.0 | 1.0 | 0.00 | 0.00 | 0.00 | 75 | 1019.6 |
| 20260505184714 | 62 | 220 | 0.0 | 1.0 | 0.00 | 0.00 | 0.00 | 75 | 1019.3 |
| 20260505184212 | 61 | 222 | 1.0 | 1.0 | 0.00 | 0.00 | 0.00 | 76 | 1019.6 |
| 20260505183708 | 61 | 226 | 0.0 | 0.0 | 0.00 | 0.00 | 0.00 | 76 | 1019.3 |
| 20260505183206 | 60 | 214 | 1.0 | 1.0 | 0.00 | 0.00 | 0.00 | 77 | 1019.3 |
| 20260505182702 | 60 | 254 | 1.0 | 2.0 | 0.00 | 0.00 | 0.00 | 77 | 1019.3 |
| 20260505182159 | 60 | 207 | 0.0 | 0.0 | 0.00 | 0.00 | 0.00 | 77 | 1019.6 |
| 20260505181655 | 60 | 220 | 0.0 | 0.0 | 0.00 | 0.00 | 0.00 | 79 | 1019.6 |
| 20260505181153 | 61 | 223 | 2.0 | 2.0 | 0.00 | 0.00 | 0.00 | 76 | 1019.6 |
| 20260505180649 | 61 | 201 | 0.0 | 0.0 | 0.00 | 0.00 | 0.00 | 78 | 1019.3 |
| 20260505180147 | 60 | 212 | 0.0 | 1.0 | 0.00 | 0.00 | 0.00 | 78 | 1019.3 |
| 20260505175642 | 60 | 212 | 0.0 | 1.0 | 0.00 | 0.00 | 0.00 | 79 | 1019.3 |
| 20260505175139 | 59 | 206 | 0.0 | 0.0 | 0.00 | 0.00 | 0.00 | 80 | 1019.3 |
| 20260505174636 | 59 | 203 | 0.0 | 0.0 | 0.00 | 0.00 | 0.00 | 80 | 1018.9 |
| 20260505174132 | 59 | 202 | 0.0 | 1.0 | 0.00 | 0.00 | 0.00 | 80 | 1019.6 |
| 20260505173629 | 59 | 212 | 0.0 | 0.0 | 0.00 | 0.00 | 0.00 | 80 | 1019.3 |
| 20260505173125 | 59 | 203 | 0.0 | 1.0 | 0.00 | 0.00 | 0.00 | 79 | 1019.3 |
| 20260505172623 | 58 | 212 | 0.0 | 0.0 | 0.00 | 0.00 | 0.00 | 81 | 1019.3 |
| 20260505172120 | 58 | 198 | 1.0 | 1.0 | 0.00 | 0.00 | 0.00 | 82 | 1019.3 |
| 20260505171614 | 57 | 202 | 2.0 | 2.0 | 0.00 | 0.00 | 0.00 | 82 | 1018.9 |
| 20260505171112 | 58 | 198 | 4.0 | 5.0 | 0.00 | 0.00 | 0.00 | 81 | 1019.3 |
| 20260505170609 | 59 | 221 | 2.0 | 2.0 | 0.00 | 0.00 | 0.00 | 80 | 1018.9 |
| 20260505170105 | 59 | 249 | 2.0 | 2.0 | 0.00 | 0.00 | 0.00 | 79 | 1019.3 |
| 20260505165559 | 59 | 196 | 1.0 | 1.0 | 0.00 | 0.00 | 0.00 | 80 | 1019.3 |
| 20260505165056 | 58 | 221 | 1.0 | 1.0 | 0.00 | 0.00 | 0.00 | 81 | 1018.9 |
| 20260505164552 | 58 | 227 | 0.0 | 0.0 | 0.00 | 0.00 | 0.00 | 83 | 1019.3 |
| 20260505164050 | 57 | 178 | 1.0 | 1.0 | 0.00 | 0.00 | 0.00 | 83 | 1018.9 |
| 20260505163549 | 57 | 202 | 1.0 | 1.0 | 0.00 | 0.00 | 0.00 | 83 | 1018.9 |
| 20260505163045 | 57 | 265 | 3.0 | 3.0 | 0.00 | 0.00 | 0.00 | 82 | 1018.9 |
| 20260505162543 | 57 | 219 | 0.0 | 1.0 | 0.00 | 0.00 | 0.00 | 84 | 1018.9 |
| 20260505162041 | 57 | 216 | 2.0 | 2.0 | 0.00 | 0.00 | 0.00 | 83 | 1018.9 |
| 20260505161538 | 56 | 220 | 0.0 | 0.0 | 0.00 | 0.00 | 0.00 | 85 | 1018.9 |
| 20260505161035 | 56 | 224 | 1.0 | 1.0 | 0.00 | 0.00 | 0.00 | 85 | 1019.3 |
| 20260505160533 | 56 | 200 | 1.0 | 1.0 | 0.00 | 0.00 | 0.00 | 86 | 1018.9 |
| 20260505153009 | 55 | 229 | 1.0 | 2.0 | 0.00 | 0.00 | 0.00 | 86 | 1018.9 |
| 20260505152506 | 55 | 223 | 1.0 | 1.0 | 0.00 | 0.00 | 0.00 | 87 | 1018.6 |
| 20260505152002 | 55 | 218 | 0.0 | 1.0 | 0.00 | 0.00 | 0.00 | 88 | 1018.9 |
| 20260505151457 | 55 | 218 | 2.0 | 2.0 | 0.00 | 0.00 | 0.00 | 88 | 1018.9 |
| 20260505150955 | 55 | 228 | 2.0 | 2.0 | 0.00 | 0.00 | 0.00 | 88 | 1018.6 |
| 20260505150451 | 54 | 246 | 1.0 | 2.0 | 0.00 | 0.00 | 0.00 | 89 | 1019.3 |
| 20260505140422 | 54 | 218 | 1.0 | 1.0 | 0.00 | 0.00 | 0.00 | 91 | 1018.2 |
| 20260505124835 | 53 | 205 | 1.0 | 1.0 | 0.00 | 0.00 | 0.00 | 92 | 1017.9 |
| 20260505124332 | 54 | 232 | 0.0 | 1.0 | 0.00 | 0.00 | 0.00 | 92 | 1017.9 |
| 20260505123828 | 54 | 220 | 0.0 | 0.0 | 0.00 | 0.00 | 0.00 | 91 | 1017.6 |
| 20260505123324 | 54 | 221 | 0.0 | 1.0 | 0.00 | 0.00 | 0.00 | 91 | 1017.6 |
| 20260505122821 | 54 | 220 | 0.0 | 0.0 | 0.00 | 0.00 | 0.00 | 91 | 1017.9 |
| 20260505122318 | 54 | 199 | 0.0 | 1.0 | 0.00 | 0.00 | 0.00 | 91 | 1017.6 |
| 20260505121815 | 54 | 211 | 0.0 | 0.0 | 0.00 | 0.00 | 0.00 | 91 | 1017.9 |
| 20260505121312 | 54 | 218 | 1.0 | 1.0 | 0.00 | 0.00 | 0.00 | 91 | 1017.6 |
| 20260505120808 | 54 | 212 | 0.0 | 0.0 | 0.00 | 0.00 | 0.00 | 90 | 1017.6 |
| 20260505120304 | 54 | 212 | 0.0 | 0.0 | 0.00 | 0.00 | 0.00 | 90 | 1017.6 |
| 20260505115802 | 54 | 218 | 0.0 | 0.0 | 0.00 | 0.00 | 0.00 | 90 | 1017.6 |
| 20260505115300 | 54 | 214 | 1.0 | 1.0 | 0.00 | 0.00 | 0.00 | 90 | 1017.6 |
| 20260505114757 | 54 | 216 | 0.0 | 0.0 | 0.00 | 0.00 | 0.00 | 89 | 1017.9 |
| 20260505114254 | 54 | 210 | 0.0 | 0.0 | 0.00 | 0.00 | 0.00 | 89 | 1017.9 |
| 20260505113750 | 54 | 209 | 1.0 | 1.0 | 0.00 | 0.00 | 0.00 | 89 | 1017.6 |
| 20260505113247 | 54 | 219 | 1.0 | 1.0 | 0.00 | 0.00 | 0.00 | 89 | 1017.9 |
| 20260505112743 | 54 | 217 | 3.0 | 3.0 | 0.00 | 0.00 | 0.00 | 89 | 1017.6 |
| 20260505112241 | 54 | 190 | 2.0 | 2.0 | 0.00 | 0.00 | 0.00 | 89 | 1017.6 |
| 20260505111740 | 54 | 206 | 0.0 | 0.0 | 0.00 | 0.00 | 0.00 | 89 | 1017.6 |
| 20260505111236 | 54 | 209 | 1.0 | 1.0 | 0.00 | 0.00 | 0.00 | 89 | 1017.6 |
| 20260505110732 | 54 | 225 | 1.0 | 2.0 | 0.00 | 0.00 | 0.00 | 89 | 1017.2 |
| 20260505110230 | 54 | 179 | 1.0 | 2.0 | 0.00 | 0.00 | 0.00 | 89 | 1017.6 |
| 20260505102205 | 54 | 196 | 1.0 | 1.0 | 0.00 | 0.00 | 0.00 | 90 | 1017.2 |
| 20260505101704 | 54 | 190 | 1.0 | 1.0 | 0.00 | 0.00 | 0.00 | 90 | 1017.6 |
| 20260505101200 | 54 | 187 | 2.0 | 2.0 | 0.00 | 0.00 | 0.00 | 90 | 1017.2 |
| 20260505100656 | 54 | 184 | 2.0 | 2.0 | 0.00 | 0.00 | 0.00 | 90 | 1017.2 |
| 20260505100154 | 54 | 183 | 1.0 | 1.0 | 0.00 | 0.00 | 0.00 | 90 | 1017.2 |
| 20260505095649 | 54 | 202 | 0.0 | 1.0 | 0.00 | 0.00 | 0.00 | 90 | 1017.2 |
| 20260505095147 | 54 | 201 | 0.0 | 1.0 | 0.00 | 0.00 | 0.00 | 90 | 1017.2 |
| 20260505094642 | 54 | 196 | 1.0 | 1.0 | 0.00 | 0.00 | 0.00 | 90 | 1017.2 |
| 20260505094139 | 54 | 196 | 1.0 | 1.0 | 0.00 | 0.00 | 0.00 | 90 | 1016.9 |
| 20260505093635 | 54 | 209 | 0.0 | 0.0 | 0.00 | 0.00 | 0.00 | 89 | 1016.9 |
| 20260505093133 | 54 | 188 | 1.0 | 2.0 | 0.00 | 0.00 | 0.00 | 89 | 1016.9 |
| 20260505092630 | 54 | 186 | 1.0 | 2.0 | 0.00 | 0.00 | 0.00 | 89 | 1017.2 |
| 20260505092129 | 54 | 196 | 1.0 | 1.0 | 0.00 | 0.00 | 0.00 | 89 | 1017.2 |
| 20260505091625 | 54 | 203 | 1.0 | 2.0 | 0.00 | 0.00 | 0.00 | 89 | 1017.2 |
| 20260505091123 | 54 | 201 | 2.0 | 2.0 | 0.00 | 0.00 | 0.00 | 89 | 1016.9 |
| 20260505090621 | 54 | 197 | 2.0 | 2.0 | 0.00 | 0.00 | 0.00 | 89 | 1016.9 |
| 20260505090119 | 54 | 185 | 2.0 | 2.0 | 0.00 | 0.00 | 0.00 | 89 | 1016.9 |
| 20260505085616 | 54 | 206 | 1.0 | 1.0 | 0.00 | 0.00 | 0.00 | 89 | 1016.9 |
| 20260505085114 | 54 | 212 | 0.0 | 0.0 | 0.00 | 0.00 | 0.00 | 89 | 1017.2 |
| 20260505084611 | 54 | 182 | 2.0 | 2.0 | 0.00 | 0.00 | 0.00 | 89 | 1016.9 |
| 20260505084110 | 54 | 213 | 1.0 | 1.0 | 0.00 | 0.00 | 0.00 | 89 | 1017.2 |
| 20260505083607 | 54 | 207 | 1.0 | 2.0 | 0.00 | 0.00 | 0.00 | 90 | 1016.9 |
| 20260505083103 | 53 | 211 | 0.0 | 0.0 | 0.00 | 0.00 | 0.00 | 90 | 1016.9 |
| 20260505082559 | 54 | 210 | 1.0 | 2.0 | 0.00 | 0.00 | 0.00 | 90 | 1016.5 |
| 20260505082056 | 54 | 197 | 2.0 | 2.0 | 0.00 | 0.00 | 0.00 | 90 | 1016.9 |
| 20260505081552 | 54 | 172 | 2.0 | 2.0 | 0.00 | 0.00 | 0.00 | 90 | 1016.9 |
| 20260505081050 | 54 | 196 | 1.0 | 1.0 | 0.00 | 0.00 | 0.00 | 90 | 1016.9 |
| 20260505080546 | 54 | 193 | 1.0 | 2.0 | 0.00 | 0.00 | 0.00 | 90 | 1016.9 |
| 20260505080043 | 54 | 195 | 1.0 | 1.0 | 0.00 | 0.00 | 0.00 | 90 | 1016.9 |
| 20260505075538 | 54 | 207 | 0.0 | 0.0 | 0.00 | 0.00 | 0.00 | 90 | 1016.5 |
| 20260505075035 | 54 | 201 | 1.0 | 1.0 | 0.00 | 0.00 | 0.00 | 90 | 1016.5 |
| 20260505074532 | 54 | 191 | 3.0 | 3.0 | 0.00 | 0.00 | 0.00 | 90 | 1016.5 |
| 20260505074030 | 54 | 200 | 1.0 | 1.0 | 0.00 | 0.00 | 0.00 | 90 | 1016.9 |
| 20260505073527 | 53 | 184 | 3.0 | 5.0 | 0.00 | 0.00 | 0.00 | 90 | 1016.9 |
| 20260505073025 | 53 | 198 | 1.0 | 1.0 | 0.00 | 0.00 | 0.00 | 90 | 1016.5 |
| 20260505072520 | 53 | 193 | 1.0 | 2.0 | 0.00 | 0.00 | 0.00 | 90 | 1016.9 |
| 20260505072017 | 54 | 207 | 0.0 | 0.0 | 0.00 | 0.00 | 0.00 | 90 | 1016.9 |
| 20260505071513 | 54 | 200 | 1.0 | 1.0 | 0.00 | 0.00 | 0.00 | 89 | 1016.5 |
| 20260505071011 | 54 | 219 | 1.0 | 1.0 | 0.00 | 0.00 | 0.00 | 90 | 1016.5 |
| 20260505070508 | 54 | 213 | 1.0 | 1.0 | 0.00 | 0.00 | 0.00 | 89 | 1016.5 |
| 20260505070004 | 54 | 211 | 2.0 | 2.0 | 0.00 | 0.00 | 0.00 | 89 | 1016.5 |
| 20260505065500 | 54 | 211 | 3.0 | 3.0 | 0.00 | 0.00 | 0.00 | 89 | 1016.2 |
| 20260505064956 | 54 | 203 | 1.0 | 2.0 | 0.00 | 0.00 | 0.00 | 89 | 1016.5 |
| 20260505064453 | 54 | 208 | 2.0 | 2.0 | 0.00 | 0.00 | 0.00 | 89 | 1016.2 |
| 20260505063952 | 54 | 211 | 1.0 | 1.0 | 0.00 | 0.00 | 0.00 | 89 | 1016.2 |
| 20260505063448 | 54 | 213 | 0.0 | 0.0 | 0.00 | 0.00 | 0.00 | 89 | 1016.2 |
| 20260505062945 | 54 | 207 | 1.0 | 1.0 | 0.00 | 0.00 | 0.00 | 89 | 1016.2 |
| 20260505062442 | 54 | 209 | 1.0 | 2.0 | 0.00 | 0.00 | 0.00 | 88 | 1016.2 |
| 20260505061938 | 54 | 194 | 1.0 | 1.0 | 0.00 | 0.00 | 0.00 | 88 | 1016.2 |
| 20260505061437 | 54 | 214 | 3.0 | 3.0 | 0.00 | 0.00 | 0.00 | 88 | 1016.2 |
| 20260505060934 | 55 | 209 | 0.0 | 0.0 | 0.00 | 0.00 | 0.00 | 88 | 1016.2 |
| 20260505060431 | 55 | 207 | 2.0 | 2.0 | 0.00 | 0.00 | 0.00 | 88 | 1016.2 |
| 20260505055927 | 55 | 206 | 1.0 | 1.0 | 0.00 | 0.00 | 0.00 | 87 | 1016.2 |
| 20260505055423 | 55 | 223 | 1.0 | 2.0 | 0.00 | 0.00 | 0.00 | 87 | 1016.2 |
| 20260505054920 | 55 | 211 | 1.0 | 1.0 | 0.00 | 0.00 | 0.00 | 87 | 1016.2 |
| 20260505054417 | 55 | 204 | 3.0 | 5.0 | 0.00 | 0.00 | 0.00 | 87 | 1016.2 |
| 20260505053915 | 55 | 187 | 1.0 | 2.0 | 0.00 | 0.00 | 0.00 | 87 | 1016.2 |
| 20260505053412 | 55 | 234 | 3.0 | 3.0 | 0.00 | 0.00 | 0.00 | 87 | 1016.2 |
| 20260505052909 | 55 | 209 | 2.0 | 2.0 | 0.00 | 0.00 | 0.00 | 87 | 1016.2 |
| 20260505052406 | 55 | 221 | 2.0 | 2.0 | 0.00 | 0.00 | 0.00 | 87 | 1015.9 |
| 20260505051903 | 56 | 217 | 1.0 | 2.0 | 0.00 | 0.00 | 0.00 | 86 | 1016.2 |
| 20260505051400 | 56 | 217 | 4.0 | 5.0 | 0.00 | 0.00 | 0.00 | 86 | 1016.2 |
| 20260505050858 | 56 | 211 | 0.0 | 1.0 | 0.00 | 0.00 | 0.00 | 86 | 1015.9 |
| 20260505050357 | 56 | 201 | 1.0 | 1.0 | 0.00 | 0.00 | 0.00 | 86 | 1015.9 |
| 20260505041324 | 58 | 212 | 0.0 | 1.0 | 0.00 | 0.00 | 0.00 | 83 | 1015.2 |
| 20260505040821 | 59 | 204 | 2.0 | 2.0 | 0.00 | 0.00 | 0.00 | 82 | 1015.2 |
| 20260505040319 | 59 | 191 | 3.0 | 5.0 | 0.00 | 0.00 | 0.00 | 81 | 1014.9 |
| 20260505035815 | 59 | 197 | 3.0 | 3.0 | 0.00 | 0.00 | 0.00 | 81 | 1014.9 |
| 20260505035311 | 60 | 205 | 1.0 | 1.0 | 0.00 | 0.00 | 0.00 | 80 | 1014.9 |
| 20260505034808 | 60 | 211 | 2.0 | 2.0 | 0.00 | 0.00 | 0.00 | 79 | 1014.5 |
| 20260505034305 | 60 | 197 | 1.0 | 1.0 | 0.00 | 0.00 | 0.00 | 79 | 1014.5 |
| 20260505033802 | 61 | 209 | 0.0 | 1.0 | 0.00 | 0.00 | 0.00 | 78 | 1014.9 |
| 20260505033259 | 61 | 217 | 3.0 | 3.0 | 0.00 | 0.00 | 0.00 | 77 | 1014.5 |
| 20260505032757 | 62 | 216 | 0.0 | 0.0 | 0.00 | 0.00 | 0.00 | 76 | 1014.5 |
| 20260505032253 | 62 | 204 | 1.0 | 1.0 | 0.00 | 0.00 | 0.00 | 75 | 1014.2 |
| 20260505031750 | 62 | 204 | 1.0 | 1.0 | 0.00 | 0.00 | 0.00 | 75 | 1014.5 |
| 20260505031246 | 63 | 212 | 2.0 | 2.0 | 0.00 | 0.00 | 0.00 | 74 | 1014.2 |
| 20260505030743 | 64 | 209 | 2.0 | 3.0 | 0.00 | 0.00 | 0.00 | 73 | 1014.2 |
| 20260505030240 | 64 | 196 | 0.0 | 1.0 | 0.00 | 0.00 | 0.00 | 73 | 1014.2 |
| 20260505025735 | 65 | 205 | 0.0 | 0.0 | 0.00 | 0.00 | 0.00 | 71 | 1013.8 |
| 20260505025234 | 65 | 206 | 0.0 | 1.0 | 0.00 | 0.00 | 0.00 | 71 | 1014.2 |
| 20260505024732 | 66 | 205 | 0.0 | 1.0 | 0.00 | 0.00 | 0.00 | 71 | 1013.5 |
| 20260505024229 | 66 | 295 | 1.0 | 2.0 | 0.00 | 0.00 | 0.00 | 71 | 1013.8 |
| 20260505023726 | 66 | 224 | 2.0 | 2.0 | 0.00 | 0.00 | 0.00 | 72 | 1013.5 |
| 20260505023223 | 67 | 200 | 3.0 | 5.0 | 0.00 | 0.00 | 0.00 | 72 | 1013.5 |
| 20260505022721 | 67 | 209 | 0.0 | 1.0 | 0.00 | 0.00 | 0.00 | 72 | 1013.8 |
| 20260505022217 | 67 | 214 | 1.0 | 2.0 | 0.00 | 0.00 | 0.00 | 71 | 1013.5 |
| 20260505021714 | 68 | 220 | 3.0 | 7.0 | 0.00 | 0.00 | 0.00 | 71 | 1013.5 |
| 20260505021211 | 68 | 209 | 2.0 | 3.0 | 0.00 | 0.00 | 0.00 | 70 | 1013.5 |
| 20260505020707 | 68 | 226 | 2.0 | 3.0 | 0.00 | 0.00 | 0.00 | 70 | 1013.5 |
| 20260505020202 | 68 | 198 | 3.0 | 5.0 | 0.00 | 0.00 | 0.00 | 70 | 1013.5 |
| 20260505015700 | 68 | 216 | 4.0 | 6.0 | 0.00 | 0.00 | 0.00 | 69 | 1013.5 |
| 20260505015156 | 69 | 273 | 3.0 | 5.0 | 0.00 | 0.00 | 0.00 | 69 | 1013.5 |
| 20260505014654 | 69 | 238 | 1.0 | 1.0 | 0.00 | 0.00 | 0.00 | 68 | 1013.5 |
| 20260505014150 | 70 | 289 | 4.0 | 6.0 | 0.00 | 0.00 | 0.00 | 67 | 1013.5 |
| 20260505013648 | 70 | 186 | 7.0 | 8.0 | 0.00 | 0.00 | 0.00 | 68 | 1013.5 |
| 20260505013145 | 71 | 8 | 5.0 | 6.0 | 0.00 | 0.00 | 0.00 | 68 | 1013.2 |
| 20260505012643 | 71 | 243 | 3.0 | 3.0 | 0.00 | 0.00 | 0.00 | 68 | 1013.5 |
| 20260505012140 | 71 | 221 | 1.0 | 2.0 | 0.00 | 0.00 | 0.00 | 67 | 1013.2 |
| 20260505011635 | 71 | 204 | 2.0 | 3.0 | 0.00 | 0.00 | 0.00 | 67 | 1013.8 |
| 20260505011133 | 71 | 339 | 5.0 | 8.0 | 0.00 | 0.00 | 0.00 | 66 | 1013.8 |
| 20260505010633 | 71 | 215 | 3.0 | 5.0 | 0.00 | 0.00 | 0.00 | 67 | 1013.5 |
| 20260505010130 | 71 | 223 | 2.0 | 3.0 | 0.00 | 0.00 | 0.00 | 67 | 1013.5 |
| 20260505005626 | 72 | 228 | 3.0 | 5.0 | 0.00 | 0.00 | 0.00 | 67 | 1013.8 |
| 20260505005124 | 72 | 277 | 4.0 | 6.0 | 0.00 | 0.00 | 0.00 | 65 | 1013.8 |
| 20260505004621 | 72 | 265 | 2.0 | 3.0 | 0.00 | 0.00 | 0.00 | 65 | 1013.5 |
| 20260505004117 | 72 | 202 | 2.0 | 3.0 | 0.00 | 0.00 | 0.00 | 66 | 1013.5 |
| 20260505003615 | 73 | 247 | 5.0 | 8.0 | 0.00 | 0.00 | 0.00 | 65 | 1013.8 |
| 20260505003112 | 73 | 243 | 2.0 | 3.0 | 0.00 | 0.00 | 0.00 | 64 | 1013.8 |
| 20260505002608 | 73 | 222 | 1.0 | 1.0 | 0.00 | 0.00 | 0.00 | 66 | 1013.5 |
| 20260505002106 | 74 | 228 | 1.0 | 2.0 | 0.00 | 0.00 | 0.00 | 65 | 1013.5 |
| 20260505001603 | 75 | 206 | 1.0 | 1.0 | 0.00 | 0.00 | 0.00 | 63 | 1013.5 |
| 20260505001101 | 74 | 220 | 0.0 | 0.0 | 0.00 | 0.00 | 0.00 | 62 | 1013.8 |
| 20260505000557 | 73 | 177 | 5.0 | 6.0 | 0.00 | 0.00 | 0.00 | 63 | 1013.8 |
| 20260505000055 | 73 | 185 | 3.0 | 3.0 | 0.00 | 0.00 | 0.00 | 65 | 1013.8 |
| 20260504235552 | 73 | 172 | 3.0 | 3.0 | 0.00 | 0.00 | 0.00 | 64 | 1013.8 |
| 20260504235048 | 74 | 166 | 4.0 | 5.0 | 0.00 | 0.00 | 0.00 | 62 | 1013.8 |
| 20260504234545 | 75 | 214 | 2.0 | 2.0 | 0.00 | 0.00 | 0.00 | 63 | 1013.8 |
| 20260504234042 | 75 | 221 | 2.0 | 3.0 | 0.00 | 0.00 | 0.00 | 61 | 1013.8 |
| 20260504233538 | 73 | 210 | 0.0 | 0.0 | 0.00 | 0.00 | 0.00 | 62 | 1013.8 |
| 20260504233035 | 73 | 193 | 1.0 | 2.0 | 0.00 | 0.00 | 0.00 | 64 | 1014.2 |
| 20260504232532 | 74 | 175 | 8.0 | 9.0 | 0.00 | 0.00 | 0.00 | 62 | 1014.2 |
| 20260504232030 | 73 | 194 | 5.0 | 7.0 | 0.00 | 0.00 | 0.00 | 62 | 1014.2 |
| 20260504231526 | 74 | 178 | 4.0 | 5.0 | 0.00 | 0.00 | 0.00 | 61 | 1014.2 |
| 20260504231022 | 74 | 195 | 3.0 | 3.0 | 0.00 | 0.00 | 0.00 | 62 | 1014.2 |
| 20260504230519 | 74 | 235 | 1.0 | 1.0 | 0.00 | 0.00 | 0.00 | 61 | 1014.2 |
| 20260504230018 | 72 | 193 | 1.0 | 2.0 | 0.00 | 0.00 | 0.00 | 64 | 1014.2 |
| 20260504225514 | 72 | 208 | 3.0 | 5.0 | 0.00 | 0.00 | 0.00 | 65 | 1014.2 |
| 20260504225011 | 73 | 193 | 3.0 | 3.0 | 0.00 | 0.00 | 0.00 | 64 | 1014.5 |
| 20260504224508 | 73 | 226 | 1.0 | 1.0 | 0.00 | 0.00 | 0.00 | 64 | 1014.5 |
| 20260504224005 | 73 | 155 | 4.0 | 6.0 | 0.00 | 0.00 | 0.00 | 61 | 1014.5 |
| 20260504223501 | 71 | 215 | 2.0 | 2.0 | 0.00 | 0.00 | 0.00 | 64 | 1014.5 |
| 20260504222956 | 72 | 176 | 3.0 | 6.0 | 0.00 | 0.00 | 0.00 | 65 | 1014.5 |
| 20260504222454 | 72 | 136 | 3.0 | 5.0 | 0.00 | 0.00 | 0.00 | 63 | 1014.5 |
| 20260504221952 | 71 | 162 | 2.0 | 2.0 | 0.00 | 0.00 | 0.00 | 64 | 1014.9 |
| 20260504221449 | 72 | 167 | 3.0 | 6.0 | 0.00 | 0.00 | 0.00 | 64 | 1014.9 |
| 20260504220946 | 71 | 172 | 5.0 | 6.0 | 0.00 | 0.00 | 0.00 | 64 | 1014.9 |
| 20260504220442 | 71 | 185 | 2.0 | 3.0 | 0.00 | 0.00 | 0.00 | 65 | 1014.9 |
| 20260504215939 | 71 | 131 | 4.0 | 5.0 | 0.00 | 0.00 | 0.00 | 65 | 1014.9 |
| 20260504215436 | 71 | 211 | 4.0 | 6.0 | 0.00 | 0.00 | 0.00 | 65 | 1015.2 |
| 20260504214933 | 70 | 159 | 4.0 | 6.0 | 0.00 | 0.00 | 0.00 | 67 | 1014.9 |
| 20260504214429 | 69 | 175 | 2.0 | 3.0 | 0.00 | 0.00 | 0.00 | 67 | 1015.2 |
| 20260504213926 | 69 | 158 | 5.0 | 7.0 | 0.00 | 0.00 | 0.00 | 68 | 1015.2 |
| 20260504213422 | 71 | 167 | 8.0 | 9.0 | 0.00 | 0.00 | 0.00 | 66 | 1015.2 |
| 20260504212920 | 69 | 153 | 3.0 | 3.0 | 0.00 | 0.00 | 0.00 | 66 | 1015.2 |
| 20260504212415 | 68 | 210 | 1.0 | 1.0 | 0.00 | 0.00 | 0.00 | 69 | 1015.5 |
| 20260504211913 | 69 | 96 | 5.0 | 6.0 | 0.00 | 0.00 | 0.00 | 68 | 1015.2 |
| 20260504211409 | 69 | 170 | 3.0 | 3.0 | 0.00 | 0.00 | 0.00 | 66 | 1015.2 |
| 20260504210906 | 68 | 189 | 5.0 | 9.0 | 0.00 | 0.00 | 0.00 | 67 | 1015.5 |
| 20260504210403 | 68 | 176 | 6.0 | 7.0 | 0.00 | 0.00 | 0.00 | 70 | 1015.2 |
| 20260504205900 | 68 | 182 | 3.0 | 3.0 | 0.00 | 0.00 | 0.00 | 70 | 1015.5 |
| 20260504205358 | 68 | 139 | 5.0 | 7.0 | 0.00 | 0.00 | 0.00 | 67 | 1015.5 |
| 20260504204856 | 67 | 132 | 5.0 | 6.0 | 0.00 | 0.00 | 0.00 | 69 | 1015.9 |
| 20260504204354 | 69 | 156 | 4.0 | 5.0 | 0.00 | 0.00 | 0.00 | 66 | 1015.9 |
| 20260504203854 | 67 | 214 | 1.0 | 1.0 | 0.00 | 0.00 | 0.00 | 69 | 1015.9 |
| 20260504203350 | 67 | 233 | 4.0 | 6.0 | 0.00 | 0.00 | 0.00 | 70 | 1015.9 |
| 20260504202846 | 67 | 176 | 3.0 | 5.0 | 0.00 | 0.00 | 0.00 | 69 | 1015.9 |
| 20260504202343 | 66 | 234 | 0.0 | 1.0 | 0.00 | 0.00 | 0.00 | 71 | 1015.9 |
| 20260504201839 | 66 | 171 | 8.0 | 9.0 | 0.00 | 0.00 | 0.00 | 69 | 1015.9 |
| 20260504201337 | 67 | 120 | 8.0 | 10.0 | 0.00 | 0.00 | 0.00 | 70 | 1016.2 |
| 20260504200834 | 65 | 128 | 4.0 | 6.0 | 0.00 | 0.00 | 0.00 | 71 | 1016.2 |
| 20260504200331 | 65 | 203 | 3.0 | 6.0 | 0.00 | 0.00 | 0.00 | 72 | 1016.2 |
| 20260504195827 | 65 | 138 | 6.0 | 9.0 | 0.00 | 0.00 | 0.00 | 72 | 1016.2 |
| 20260504195323 | 64 | 156 | 6.0 | 8.0 | 0.00 | 0.00 | 0.00 | 72 | 1016.5 |
| 20260504194820 | 66 | 181 | 3.0 | 3.0 | 0.00 | 0.00 | 0.00 | 72 | 1016.2 |
| 20260504194316 | 64 | 188 | 2.0 | 2.0 | 0.00 | 0.00 | 0.00 | 74 | 1016.2 |
| 20260504193812 | 63 | 184 | 3.0 | 3.0 | 0.00 | 0.00 | 0.00 | 76 | 1016.2 |